Regional Weather Roundup
Issued by NWS

Home | Current Version | Previous Version | Graphics & Text | Print | Product List | Glossary On
Versions: 1 2 3 4 5 6 7 8 9 10 11 12 13 14 15 16 17 18 19 20 21 22 23 24 25 26 27 28 29 30 31 32 33 34 35 36 37 38 39 40 41 42 43 44 45 46 47 48 49 50
000
ASUS45 KBOU 122207
RWRCO

WEATHER ROUNDUP FOR COLORADO
NATIONAL WEATHER SERVICE DENVER/BOULDER CO
300 PM MST FRI FEB 12 2016

NOTE: "FAIR" INDICATES FEW OR NO CLOUDS BELOW 12000 FEET WITH NO
SIGNIFICANT WEATHER AND/OR OBSTRUCTIONS TO VISIBILITY.

COZ001>005-013-030-031-122300-
...NORTHWEST COLORADO...

CITY           SKY/WX    TMP DP  RH WIND       PRES   REMARKS
CRAIG          FAIR      32  25  75 SW5       30.34F WCI  27
HAYDEN         FAIR      37  19  48 CALM      30.34F
MEEKER         FAIR      42  25  50 CALM      30.32F
MOUNT WERNER   NOT AVBL
STEAMBOAT SPGS FAIR      35  20  54 CALM      30.34F
WALDEN         FAIR      43  23  45 S10       30.34F
$$

COZ006>008-011-122300-
...WEST CENTRAL VALLEYS...

CITY           SKY/WX    TMP DP  RH WIND       PRES   REMARKS
GRAND JUNCTION FAIR      44  26  49 N6        30.34F
MONTROSE       FAIR      52  25  35 CALM      30.35F
EAGLE          SUNNY     46  19  34 CALM      30.36F
RIFLE          FAIR      45  19  35 CALM      30.34F
DELTA          FAIR      54  26  34 W5        30.34S
NUCLA          FAIR      52  23  32 CALM      30.38F
$$

COZ017>023-064>068-122300-
...SOUTHWEST COLORADO...

CITY           SKY/WX    TMP DP  RH WIND       PRES   REMARKS
DURANGO        FAIR      44  24  45 NE5       30.35F
CORTEZ         FAIR      55  23  28 CALM      30.35F
PAGOSA SPRINGS FAIR      55  14  20 CALM      30.38S
TELLURIDE      FAIR      53  20  28 W8        30.44S
WOLF CREEK PAS FAIR      39  14  35 W8        30.57S
$$

COZ009-010-012-014-032>034-037-058>063-122300-
...CENTRAL COLORADO...

CITY           SKY/WX    TMP DP  RH WIND       PRES   REMARKS
ASPEN          FAIR      47  22  37 N6        30.35F
BUENA VISTA    FAIR      55  19  24 SE5       30.33S
COPPER MTN     FAIR      41  19  42 NW17G30   30.49S
BERTHOUD PASS  FAIR      30  19  64 NW31G44   30.46R WCI  15
COTTONWOOD PAS FAIR      52  14  22 E6        30.41S
GUNNISON       FAIR      19   7  58 CALM      30.49F
KREMMLING      FAIR      28  14  54 CALM      30.40F
LEADVILLE      FAIR      46  19  34 NW12G20   30.40F
MONARCH PASS   FAIR      36  18  48 SW24G32   30.61S
SALIDA         NOT AVBL
SUNLIGHT       FAIR      43  23  45 CALM      30.50S
WILKERSON PASS FAIR      43  18  36 SW5       30.48F
$$

COZ069>075-122300-
...SAN LUIS VALLEY/SANGRE DE CRISTO MOUNTAINS...

CITY           SKY/WX    TMP DP  RH WIND       PRES   REMARKS
ALAMOSA        FAIR      55  19  24 VRB3      30.36F
LA VETA PASS   FAIR      46  19  34 S9        30.45S
SAGUACHE       FAIR      52  18  25 S5        30.39F
$$

COZ035-036-038>040-122300-
...NORTHERN COLORADO FRONT RANGE...

CITY           SKY/WX    TMP DP  RH WIND       PRES   REMARKS
DENVER INTL AP FAIR      49  32  52 E9        30.24S
DMNS CITY PARK   N/A     54  28  36 NE5G18    30.23S
AURORA         MOSUNNY   55  34  45 NE8       30.24S
FRONT RANGE AP MOSUNNY   46  32  57 MISG      30.24F
ERIE MUNI ARPT FAIR      52  30  42 CALM      30.23F
BOULDER MUN AP FAIR      48  30  49 N5        30.24S
CENTENNIAL     FAIR      57  32  38 N10       30.23R
BROOMFIELD     MOSUNNY   50  30  46 NW7       30.25F
FORT COLLINS   FAIR      48  30  49 SE7       30.26F
LONGMONT       FAIR      54  30  40 E5        30.26S
$$

COZ041-046-047-076>085-087-088-122300-
...PIKES PEAK/PALMER DIVIDE AND SOUTHERN FOOTHILLS...

CITY           SKY/WX    TMP DP  RH WIND       PRES   REMARKS
COLO. SPRINGS  FAIR      54  28  36 E10       30.26S
A. F. ACADEMY  FAIR      54  28  36 SE8       30.24F
SCHRIEVER AFB  FAIR      55  26  33 S9        30.26S
ELLICOTT       FAIR     N/A N/A N/A SE9       30.24F
FALCON         FAIR      55  28  35 SW3       30.29S
FORT CARSON    FAIR      57  31  37 E6        30.23S
LIMON          FAIR      54  30  40 S7        30.24F
MONUMENT HILL  FAIR      43  28  56 SE7       30.28S
TRINIDAD       FAIR      69  17  13 CALM      30.23F
$$

COZ042>045-048>051-090-091-122300-
...NORTHEAST COLORADO...

CITY           SKY/WX    TMP DP  RH WIND       PRES   REMARKS
GREELEY ARPT   FAIR      48  34  57 SE7       30.26F
AKRON          FAIR      40  33  76 E17       30.27F
BURLINGTON     PTSUNNY   42  34  73 E18       30.29S
WRAY           CLOUDY    37  32  81 E13       30.34S
STERLING       FAIR      45  34  65 SE12      30.28S
HOLYOKE        CLOUDY    36  32  87 E10       30.34S FOG
FORT MORGAN    FAIR      45  32  60 E15       30.27S
$$

COZ086-089-092>099-122300-
...SOUTHEAST COLORADO...

CITY           SKY/WX    TMP DP  RH WIND       PRES   REMARKS
PUEBLO         FAIR      65  26  23 E13       30.18F
LA JUNTA       FAIR      66  30  26 E8        30.20F
LAMAR          FAIR      66  29  24 SE16G24   30.20F
SPRINGFIELD      N/A     63  25  23 SE18      30.25F
$$



USA.gov is the U.S. government's official web portal to all federal, state and local government web resources and services.